Weather History for KZPH - October, 2012

Change the Weather History Date:

Monday, October 29, 2012

  Actual Average (KPCM) Record (KPCM)
Temperature  
Mean Temperature 55 °F -  
Max Temperature 64 °F 82 °F 90 °F (1939)
Min Temperature 46 °F 59 °F 37 °F (2008)
Degree Days  
Heating Degree Days 10    
Growing Degree Days 5 (Base 50)    
Moisture  
Dew Point 41 °F    
Average Humidity 57    
Maximum Humidity 87    
Minimum Humidity 37    
Precipitation  
Precipitation 0.00 in - - ()
Sea Level Pressure  
Sea Level Pressure 29.85 in    
Wind  
Wind Speed 11 mph ()    
Max Wind Speed 18 mph    
Max Gust Speed 25 mph    
Visibility 10.0 miles    
Events      
Averages and records for this station are not official NWS values.
T = Trace of Precipitation, MM = Missing Value Source: Averaged Metar Reports

Daily Weather History Graph

Daily Weather History Graph

Search for Another Location

Airport or City:

Trip Planner

Search our weather history database for the weather conditions in past years. The results will help you decide how hot, cold, wet, or windy it might be!

Date:

Astronomy

Oct. 29, 2012 Rise Set
Actual Time 7:38 AM EDT 6:45 PM EDT
Civil Twilight 7:14 AM EDT 7:09 PM EDT
Nautical Twilight 6:46 AM EDT 7:37 PM EDT
Astronomical Twilight 6:18 AM EDT 8:05 PM EDT
Moon 6:40 PM EDT (10/29) 7:25 AM EDT (10/29)
Length of Visible Light 11h 55m
Length of Day
11h 07m
Full, 100% of the Moon is Illuminated
Oct 29
Full
Oct 29
Full
Nov 6
Last Quarter
Nov 13
New
Nov 20
First Quarter

Hourly Weather History & Observations

Time (EDT) Temp. Windchill Dew Point Humidity Pressure Visibility Wind Dir Wind Speed Gust Speed Precip Events Conditions
12:15 AM 57.2 °F - 46.4 °F 67% 29.84 in 10.0 mi NNW 11.5 mph 17.3 mph N/A   Overcast
12:35 AM 57.2 °F - 46.4 °F 67% 29.84 in 10.0 mi NW 10.4 mph 21.9 mph N/A   Overcast
12:55 AM 55.4 °F - 44.6 °F 67% 29.84 in 10.0 mi NW 17.3 mph 24.2 mph N/A   Overcast
1:15 AM 55.4 °F - 44.6 °F 67% 29.85 in 10.0 mi NW 13.8 mph 20.7 mph N/A   Overcast
1:35 AM 55.4 °F - 42.8 °F 63% 29.85 in 10.0 mi NW 16.1 mph 21.9 mph N/A   Overcast
1:55 AM 55.4 °F - 44.6 °F 67% 29.85 in 10.0 mi NW 10.4 mph 18.4 mph N/A   Overcast
2:15 AM 55.4 °F - 44.6 °F 67% 29.85 in 10.0 mi NW 12.7 mph 17.3 mph N/A   Overcast
2:35 AM 55.4 °F - 42.8 °F 63% 29.84 in 10.0 mi NW 13.8 mph 18.4 mph N/A   Overcast
2:55 AM 55.4 °F - 42.8 °F 63% 29.84 in 10.0 mi NW 10.4 mph 17.3 mph N/A   Overcast
3:15 AM 55.4 °F - 42.8 °F 63% 29.84 in 10.0 mi NW 15.0 mph - N/A   Overcast
3:35 AM 55.4 °F - 42.8 °F 63% 29.84 in 10.0 mi NW 11.5 mph 25.3 mph N/A   Mostly Cloudy
3:55 AM 53.6 °F - 42.8 °F 67% 29.84 in 10.0 mi NW 13.8 mph 20.7 mph N/A   Scattered Clouds
4:15 AM 53.6 °F - 42.8 °F 67% 29.84 in 10.0 mi NNW 12.7 mph 18.4 mph N/A   Clear
4:35 AM 53.6 °F - 42.8 °F 67% 29.85 in 10.0 mi NNW 10.4 mph 16.1 mph N/A   Clear
4:55 AM 51.8 °F - 42.8 °F 71% 29.84 in 10.0 mi NNW 8.1 mph - N/A   Clear
5:15 AM 51.8 °F - 42.8 °F 71% 29.84 in 10.0 mi NNW 6.9 mph - N/A   Clear
5:35 AM 51.8 °F - 42.8 °F 71% 29.85 in 10.0 mi NNW 8.1 mph - N/A   Clear
5:55 AM 51.8 °F - 41.0 °F 67% 29.85 in 10.0 mi NNW 8.1 mph 16.1 mph N/A   Clear
6:15 AM 50.0 °F - 41.0 °F 71% 29.86 in 10.0 mi NW 11.5 mph - N/A   Clear
6:55 AM 50.0 °F - 39.2 °F 66% 29.87 in 10.0 mi NW 8.1 mph - N/A   Clear
7:15 AM 50.0 °F - 37.4 °F 62% 29.87 in 10.0 mi NNW 8.1 mph 18.4 mph N/A   Clear
7:35 AM 48.2 °F - 37.4 °F 66% 29.88 in 10.0 mi NW 5.8 mph - N/A   Clear
7:55 AM 48.2 °F - 37.4 °F 66% 29.89 in 10.0 mi NW 9.2 mph - N/A   Clear
8:15 AM 50.0 °F - 37.4 °F 62% 29.89 in 10.0 mi NNW 10.4 mph 16.1 mph N/A   Clear
8:35 AM 50.0 °F - 37.4 °F 62% 29.90 in 10.0 mi NW 9.2 mph - N/A   Clear
8:55 AM 51.8 °F - 37.4 °F 58% 29.91 in 10.0 mi WNW 13.8 mph - N/A   Clear
9:15 AM 51.8 °F - 37.4 °F 58% 29.92 in 10.0 mi NW 13.8 mph - N/A   Clear
9:35 AM 53.6 °F - 37.4 °F 54% 29.92 in 10.0 mi NW 11.5 mph 18.4 mph N/A   Clear
9:55 AM 53.6 °F - 37.4 °F 54% 29.92 in 10.0 mi NNW 11.5 mph 17.3 mph N/A   Clear
10:15 AM 53.6 °F - 37.4 °F 54% 29.92 in 10.0 mi NNW 12.7 mph 19.6 mph N/A   Clear
10:35 AM 55.4 °F - 37.4 °F 51% 29.91 in 10.0 mi NW 12.7 mph 19.6 mph N/A   Clear
10:55 AM 57.2 °F - 39.2 °F 51% 29.91 in 10.0 mi WNW 13.8 mph 20.7 mph N/A   Clear
11:35 AM 59.0 °F - 41.0 °F 51% 29.90 in 10.0 mi West 12.7 mph 18.4 mph N/A   Clear
11:55 AM 60.8 °F - 37.4 °F 42% 29.90 in 10.0 mi NW 15.0 mph 19.6 mph N/A   Clear
12:15 PM 60.8 °F - 39.2 °F 45% 29.89 in 10.0 mi WNW 13.8 mph 23.0 mph N/A   Clear
12:35 PM 60.8 °F - 37.4 °F 42% 29.89 in 10.0 mi NW 13.8 mph 20.7 mph N/A   Clear
12:55 PM 62.6 °F - 41.0 °F 45% 29.87 in 10.0 mi West 16.1 mph 21.9 mph N/A   Clear
1:35 PM 64.4 °F - 37.4 °F 37% 29.85 in 10.0 mi WNW 17.3 mph 23.0 mph N/A   Clear
1:55 PM 64.4 °F - 37.4 °F 37% 29.84 in 10.0 mi WNW 13.8 mph 20.7 mph N/A   Clear
2:15 PM 64.4 °F - 37.4 °F 37% 29.83 in 10.0 mi West 18.4 mph 24.2 mph N/A   Clear
2:35 PM 64.4 °F - 37.4 °F 37% 29.83 in 10.0 mi West 13.8 mph 24.2 mph N/A   Clear
2:55 PM 64.4 °F - 39.2 °F 40% 29.82 in 10.0 mi West 12.7 mph 21.9 mph N/A   Clear
3:15 PM 64.4 °F - 37.4 °F 37% 29.82 in 10.0 mi NW 15.0 mph 20.7 mph N/A   Clear
3:35 PM 64.4 °F - 37.4 °F 37% 29.81 in 10.0 mi WNW 16.1 mph 23.0 mph N/A   Clear
4:15 PM 64.4 °F - 39.2 °F 40% 29.80 in 10.0 mi West 16.1 mph 21.9 mph N/A   Clear
4:35 PM 64.4 °F - 39.2 °F 40% 29.80 in 10.0 mi West 15.0 mph 21.9 mph N/A   Clear
4:55 PM 64.4 °F - 39.2 °F 40% 29.80 in 10.0 mi WNW 16.1 mph 21.9 mph N/A   Clear
5:15 PM 62.6 °F - 39.2 °F 42% 29.80 in 10.0 mi WNW 13.8 mph 23.0 mph N/A   Clear
5:35 PM 62.6 °F - 41.0 °F 45% 29.80 in 10.0 mi WNW 13.8 mph 20.7 mph N/A   Clear
5:55 PM 62.6 °F - 41.0 °F 45% 29.80 in 10.0 mi WNW 12.7 mph 20.7 mph N/A   Clear
6:15 PM 60.8 °F - 42.8 °F 52% 29.80 in 10.0 mi WNW 10.4 mph 16.1 mph N/A   Clear
6:35 PM 60.8 °F - 42.8 °F 52% 29.81 in 10.0 mi WNW 9.2 mph - N/A   Clear
6:55 PM 59.0 °F - 42.8 °F 55% 29.81 in 10.0 mi WNW 6.9 mph - N/A   Clear
7:15 PM 57.2 °F - 42.8 °F 59% 29.81 in 10.0 mi West 5.8 mph - N/A   Clear
7:35 PM 55.4 °F - 42.8 °F 63% 29.82 in 10.0 mi West 4.6 mph - N/A   Clear
7:55 PM 55.4 °F - 42.8 °F 63% 29.82 in 10.0 mi West 3.5 mph - N/A   Clear
8:15 PM 53.6 °F - 42.8 °F 67% 29.82 in 10.0 mi Calm Calm - N/A   Clear
8:35 PM 53.6 °F - 42.8 °F 67% 29.83 in 10.0 mi West 4.6 mph - N/A   Clear
11:35 PM 46.4 °F 43.5 °F 42.8 °F 87% 29.88 in 10.0 mi NNW 5.8 mph - N/A   Clear
11:55 PM 50.0 °F - 41.0 °F 71% 29.88 in 10.0 mi NNW 6.9 mph - N/A   Clear